Regional Weather Roundup
Issued by NWS

Home | Current Version | Previous Version | Graphics & Text | Print | Product List | Glossary Off
Versions: 1 2 3 4 5 6 7 8 9 10 11 12 13 14 15 16 17 18 19 20 21 22 23 24 25 26 27 28 29 30 31 32 33 34 35 36 37 38 39 40 41 42 43 44 45 46 47 48 49 50

000
ASUS43 KMKX 162021
RWRWI

WISCONSIN REGIONAL WEATHER ROUNDUP
NATIONAL WEATHER SERVICE MILWAUKEE/SULLIVAN WI
300 PM CDT TUE SEP 16 2014

NOTE: "FAIR" INDICATES FEW OR NO CLOUDS BELOW 12,000 FEET WITH NO
SIGNIFICANT WEATHER AND/OR OBSTRUCTIONS TO VISIBILITY.

WIZ001-002-006>008-014>016-023>028-162100-
NORTHWEST WISCONSIN

CITY           SKY/WX    TMP DP  RH WIND       PRES   REMARKS
SUPERIOR ARPT  SUNNY     70  43  37 W13G23    30.01F
ASHLAND        SUNNY     68  45  43 SW13G22   30.02F
HAYWARD        SUNNY     65  39  38 SW8G18    30.07F
SIREN          SUNNY     66  40  38 SW7       30.07F
RICE LAKE      SUNNY     65  40  39 SW13      30.10F
LADYSMITH      SUNNY     65  42  43 W8        30.10F
EAU CLAIRE     SUNNY     66  40  38 W8        30.10F
MENOMONIE      CLEAR     67  39  36 S8        30.10F
NEW RICHMOND   SUNNY     66  41  39 W13       30.09F
OSCEOLA        SUNNY     67  41  39 SW9       30.11F
$$

WIZ003>005-009-010-017-018-162100-
NORTH CENTRAL WISCONSIN

CITY           SKY/WX    TMP DP  RH WIND       PRES   REMARKS
WOODRUFF       SUNNY     64  40  40 W8G16     30.05F
RHINELANDER    MOSUNNY   65  41  41 W12       30.07F
EAGLE RIVER    SUNNY     65  37  35 W14G21    30.04F
LAND O LAKES   SUNNY     66  39  36 SW10G16   30.04F
PHILLIPS       MOSUNNY   64  43  46 SW9G17    30.07F
TOMAHAWK       MOSUNNY   63  40  42 W6        30.08F
MEDFORD        SUNNY     63  41  45 W12       30.10S
MERRILL        PTSUNNY   65  42  44 W13G18    30.08F
$$

WIZ029-030-035-036-043>047-162100-
CENTRAL WISCONSIN

CITY           SKY/WX    TMP DP  RH WIND       PRES   REMARKS
WAUSAU         SUNNY     64  42  44 W13       30.08F
MOSINEE        MOSUNNY   63  45  51 W12G17    30.11F
MARSHFIELD     SUNNY     65  42  43 W10       30.10F
STEVENS POINT  SUNNY     62  40  45 W8        30.10F
WAUPACA        SUNNY     67  42  41 SW7       30.10F
WAUTOMA        SUNNY     67  42  40 SW10      30.11F
WISC RAPIDS    SUNNY     65  41  41 SW8       30.12F
CAMP DOUGLAS   MOSUNNY   64  45  48 VRB7      30.12F
$$

WIZ011>013-019>022-031-037>040-048>050-162100-
NORTHEAST WISCONSIN

CITY           SKY/WX    TMP DP  RH WIND       PRES   REMARKS
ANTIGO         PTSUNNY   63  43  47 W15       30.08F
STURGEON BAY   SUNNY     63  43  48 W13G20    30.07F
GREEN BAY      SUNNY     65  44  46 W8G17     30.09F
MANITOWOC      SUNNY     63  42  46 W10G16    30.10F
APPLETON       MOSUNNY   64  39  39 SW9       30.11F
CLINTONVILLE   MOSUNNY   64  41  42 W12       30.08F
OSHKOSH        SUNNY     63  41  44 CALM      30.11F
$$

WIZ032>034-041-042-053>061-162100-
SOUTHWEST WISCONSIN

CITY           SKY/WX    TMP DP  RH WIND       PRES   REMARKS
LA CROSSE      SUNNY     67  42  40 W9        30.12F
SPARTA         SUNNY     64  39  39 SW8       30.13F
VIROQUA        MOCLDY    64  43  45 SW8       30.14S
BOSCOBEL       MOSUNNY   66  43  43 SW6       30.14F
PRAIRIE DU CHI SUNNY     65  41  41 SW7       30.13F
PLATTEVILLE    FAIR      64  44  48 W5        30.15F
$$

WIZ056-057-062-063-064-067-068-162100-
SOUTH CENTRAL WISCONSIN

CITY           SKY/WX    TMP DP  RH WIND       PRES   REMARKS
BARABOO/DELLS  SUNNY     64  38  38 W5        30.12F
LONE ROCK      MOSUNNY   67  42  40 W5        30.13F
WATERTOWN      SUNNY     63  42  46 SW6       30.12F
MADISON        MOSUNNY   63  41  44 VRB6      30.13F
MIDDLETON      FAIR      64  42  43 W12       30.13F
MONROE         SUNNY     63  41  45 W5        30.13F
JANESVILLE     SUNNY     66  41  39 W7        30.13F
$$

WIZ051-052-058>065-066-070>072-162100-
SOUTHEAST WISCONSIN

CITY           SKY/WX    TMP DP  RH WIND       PRES   REMARKS
MILWAUKEE      MOSUNNY   63  40  42 W8        30.13F
WAUKESHA       NOT AVBL
MILWAUKEE/TIMM SUNNY     63  37  39 W10       30.13F
RACINE         SUNNY     61  40  45 SE8       30.15F
BURLINGTON     SUNNY     63  38  40 W7        30.13F
KENOSHA        SUNNY     63  42  46 SW7       30.13F
FOND DU LAC    SUNNY     63  41  44 VRB7      30.12F
SHEBOYGAN      SUNNY     64  38  38 VRB5      30.11F
WEST BEND      SUNNY     61  36  39 SW9       30.12F
JUNEAU         SUNNY     61  42  48 W7        30.13F
$$

LSZ147-162-162100-
LAKE SUPERIOR

STATION/POSITION TIME  TEMP    WIND        PRES    WAVE
                       AIR SEA DIR/SP/G            HT/PER
                 (UTC) (F)     (DEG/KT/KT) (MB)    (FT/S)
W MID LAKE BUOY  1950   54 46  240/ 16/ 17 1014.3F   4/ 6
DEVILS ISLAND    2000   60     240/ 21/ 23 1015.1F
PORT WING        1900   66     250/  9/ 15 1016.6F
SAXON HARBOR     1900   67     240/  8/ 16 1016.9F
$$

LMZ867-665-643>646-162100-
LAKE MICHIGAN

STATION/POSITION TIME  TEMP    WIND        PRES    WAVE
                       AIR SEA DIR/SP/G            HT/PER
                 (UTC) (F)     (DEG/KT/KT) (MB)    (FT/S)
N MID LAKE BUOY  1950   57 58  210/ 17/ 21 1017.4F   2/ 4
NORTHPORT PIER   1900   63     220/  7/ 15 1017.6F
KEWAUNEE LAKESHO 2000   63     220/  8/ 11 1017.8F
SHEBOYGAN LAKESH 2000   58 48  140/  5/  6 1020.0F
PORT WASHINGTON  1900   61     150/  6/  7 1021.0F
ATWATER BUOY     2000   59     130/ 10/ 12 1021.1F
MILWAUKEE LAKESH 2000   58     110/  7/  9   N/A
S MID LAKE BUOY  1950   58 65  300/  8/ 12 1021.0F   1/ 4
KENOSHA   LAKESH 2000   60     110/  6/  7 1020.0F
$$

TC  - TEMPERATURE IN CELSIUS
VSB - VISIBILITY IN STATUTE MILES
WCI - WIND CHILL INDEX
HX  - HEAT INDEX




USA.gov is the U.S. government's official web portal to all federal, state and local government web resources and services.